Regional Weather Roundup
Issued by NWS Wakefield, VA

Current Version | Previous Version | Text Only | Print | Product List | Glossary Off
Versions: 1 2 3 4 5 6 7 8 9 10 11 12 13 14 15 16 17 18 19 20 21 22 23 24 25 26 27 28 29 30 31 32 33 34 35 36 37 38 39 40 41 42 43 44 45 46 47 48 49 50

000
ASUS41 KAKQ 230910
RWRAKQ

REGIONAL WEATHER ROUNDUP
NATIONAL WEATHER SERVICE WAKEFIELD VA
500 AM EDT SAT AUG 23 2014

Note: "fair" indicates few or no clouds below 12,000 feet with no
significant weather and/or obstructions to visibility. * = Denotes
station may not report precipitation (e.g., rain,snow,etc.),
thunder or fog.

VAZ042-051-052>054-056-231000-
NORTHERN VIRGINIA

CITY           SKY/WX    TMP DP  RH WIND       PRES   REMARKS
WASH NATIONAL  CLOUDY    73  65  75 E7        29.99S
DULLES         CLOUDY    70  66  87 E7        29.98F
FORT BELVOIR   CLOUDY    71  67  89 VRB1      29.98F
QUANTICO       CLOUDY    72  68  87 E7        29.98F
FREDERICKSBRG* CLOUDY    73  73 100 CALM      29.96S
STAFFORD*      CLOUDY    71  71 100 E5        30.01S
WARRENTON      CLOUDY    73  73 100 E5        29.97S
CULPEPER*      CLOUDY   N/A N/A N/A CALM      29.97F
MANASSAS*      CLOUDY    72  70  94 E6        29.97F
LEESBURG*      CLOUDY    72  70  94 E7        29.99F
WINCHESTER     CLOUDY    72  70  94 SE5       29.98S
$$

VAZ048-049-060>072-079>083-231000-
CENTRAL AND SOUTH CENTRAL VIRGINIA...AND NORTH CENTRAL NORTH CAROLINA

CITY           SKY/WX    TMP DP  RH WIND       PRES   REMARKS
RICHMOND       LGT RAIN  73  70  90 CALM      29.96R
CHESTERFIELD*  CLOUDY   N/A N/A N/A E5        29.96F
HANOVER        CLOUDY    71  70  96 CALM      29.98R
TAPPAHANNOCK*  CLOUDY    69  67  92 CALM      29.97F
CHARLOTTSVILLE LGT RAIN  71  70  96 CALM      29.97S
ORANGE*        DRIZZLE   70  68  94 CALM      29.98S
LOUISA*        DRIZZLE   72  70  94 CALM      29.96S
FARMVILLE*     CLOUDY    73  73 100 CALM      29.94S FOG
SOUTH HILL*    CLOUDY    73  73 100 CALM      30.00S FOG
ROANOKE RAPIDS CLOUDY    72  70  94 CALM      29.94S FOG
RALEIGH        CLOUDY    75  72  90 CALM      29.93F
$$

VAZ088>098-231000-
SOUTHEAST VIRGINIA

CITY           SKY/WX    TMP DP  RH WIND       PRES   REMARKS
NORFOLK        CLEAR     75  70  84 E6        29.93S
VIRGINIA BEACH MOCLDY    74  71  91 E5        29.92F
NORFOLK NAVAL  PTCLDY    76  70  82 E7        29.95S
WEST POINT*    PTCLDY    73  70  91 CALM      29.96F
NEWPORT NEWS   CLEAR     75  70  84 CALM      29.94S
LANGLEY AFB    CLEAR     74  74 100 E8        29.94S
FORT EUSTIS    PTCLDY    72 N/A N/A E5        29.92F
WILLIAMSBURG*  PTCLDY    73  72  94 CALM      29.95F
FRANKLIN*      PTCLDY    68  68 100 CALM      29.94S
WAKEFIELD      CLOUDY    72  69  90 CALM      29.94F
$$

VAZ020-022-025-037-045-231000-
WESTERN AND SOUTHWEST VIRGINIA

CITY           SKY/WX    TMP DP  RH WIND       PRES   REMARKS
STAUNTON*      CLOUDY    71  69  92 NE6       30.01R
HOT SPRINGS VA FOG       64  64 100 CALM      30.12S VSB<1/4
LYNCHBURG      CLOUDY   N/A N/A N/A NE3       29.98S
DANVILLE       CLOUDY    74  72  93 CALM      29.94F
MARTINSVILLE   FOG       73  73 100 CALM      29.99S VSB 1/4
ROANOKE        MOCLDY    73  67  81 NW5       29.99F
BLACKSBURG     CLOUDY    70  70 100 W5        30.05S
DUBLIN*        CLOUDY    71  69  94 W3        30.04S
MARION*        CLOUDY   N/A N/A N/A W10       30.09S
HILLSVILLE*    MOCLDY    67  66  96 NW8       30.06S
RICHLANDS*     CLOUDY    70  68  94 CALM      30.08S
WISE*          LGT RAIN  68  68 100 W3        30.09F
ABINGDON*      CLOUDY    70  70 100 W3        30.06S FOG
$$

MDZ021>025-VAZ099-100-231000-
SOUTHERN MARYLAND AND THE DELMARVA PENINSULA

CITY           SKY/WX    TMP DP  RH WIND       PRES   REMARKS
PATUXENT RIVER MOCLDY    70  66  87 NE6       29.97S
BAY BRIDGE APT   N/A     68  64  88 E7        29.99F
LEONARDTOWN    CLOUDY    68  64  88 NE3       29.99S
DOVER          MOCLDY    68  67  98 N5        29.98S
GEORGETOWN     PTCLDY    66  63  90 E9        29.99S
EASTON         PTCLDY    66  66 100 CALM      30.03S
CAMBRIDGE      CLEAR     66  63  88 NE5       29.98S
SALISBURY      CLEAR     67  63  87 NE3       29.97S
OCEAN CITY     MOCLDY    72  65  78 E7        29.97S
WALLOPS ISLAND CLOUDY    71  68  90 N5        29.97R
ACCOMACK*      CLEAR     68  64  88 E5        29.95S
$$

NCZ012>017-030>032-231000-
EASTERN NORTH CAROLINA

CITY           SKY/WX    TMP DP  RH WIND       PRES   REMARKS
ELIZABETH CITY CLEAR     74  72  93 N6        29.93S
AHOSKIE*       PTCLDY    71  69  94 CALM      29.94R
EDENTON*       MOCLDY    72  71  96 NE3       29.93S FOG
CURRITUCK*     MOCLDY    76  72  86 NE3       29.93F
KILL DEVIL HLS PTCLDY    76  72  87 NE3       29.91F
MANTEO         CLEAR     75  72  88 NE7       29.92S
CAPE HATTERAS  CLOUDY    75  72  90 NE3       29.91F
GOLDSBORO      MOCLDY    75  75 100 N3        29.91S
WASHINGTON     MOCLDY    74  71  92 CALM      29.93S
GREENVILLE     MOCLDY    75  72  88 CALM      29.95S
NEW BERN       MOCLDY    78  73  84 CALM      29.93F
WILMINGTON     CLEAR     73  72  96 CALM      29.90F
$$

VAZ048-231000-
ELSEWHERE

CITY           SKY/WX    TMP DP  RH WIND       PRES   REMARKS
HARRISBURG PA  CLOUDY    70  60  70 E6        30.01R
BALTIMORE      CLOUDY    69  63  81 E5        30.00S
ANNAPOLIS      CLOUDY    71  65  81 E7        29.99S
ANDREWS AFB    CLOUDY    69  66  90 E8        29.98F
WILMINGTON DE  PTCLDY    68  63  84 E6        30.02S
PHILADELPHIA   MOCLDY    68  62  81 NE7       30.02S
WILDWOOD NJ*   PTCLDY    64  61  88 N5        30.00S
ATLANTIC CITY  CLEAR     63  62  97 N5        30.00S
HENDERSON NC   CLOUDY    73  72  94 SE5       29.95F FOG
GREENSBORO     CLOUDY    75  71  87 CALM      29.94F
ROCKY MOUNT    LGT RAIN  74  72  93 CALM      29.93S FOG
FAYETTEVILLE   PTCLDY    74  71  91 CALM      29.91S
CHARLOTTE      MOCLDY    74  72  93 NW6       29.95S
$$

VAZ100-231000-
MARINE

STATION/POSITION TIME  TEMP    WIND        PRES    WAVE   SWELL
                       AIR SEA DIR/SP/G            HT/PER HT/PER
                 (UTC) (F)     (DEG/KT/KT) (MB)    (FT/S) (FT/S)
44066 TX TWR #4  0900   70 72   50/ 17/ 21 1015.0R   6/ 6   2/12
CAPE MAY NJ      0900   66 79   10/  2/  4 1015.1R
LEWES DE         0900   72 76   80/ 10/ 12 1015.0S
15NM E FENWICK I 0900   73 75              1014.6S   4/ 5
OCEAN-CITY-INLET 0900   73 76   80/  9/ 13 1014.3F
WACHAPREAGUE VA  0900   74 80   50/  8/ 11 1014.0F
THOMAS POINT MD  0900   70 78   80/  9/ 11 1016.0F
GOOSES REEF MD   0900   72     100/ 10/ 12 1015.6F
COVE POINT MD    0900   70      90/ 10/ 12 1014.9S
SOLOMONS ISLAND  0900      80                N/A
BISHOPS HEAD MD  0900   71 77   50/ 10/ 12 1014.3F
PINEY POINT MD   0900           70/  6/  8   N/A
POTOMAC MD       0900   74      80/ 10/ 12 1014.1S
CAMBRIDGE MD     0900   69 79   20/  6/  7 1014.9F
LEWISETTA VA     0900   74 80   80/ 10/ 13 1014.1F
RAPPAHANNOCK LGT 0900           60/ 10/ 11 1014.4F
STINGRAY PT      0900   75      90/ 10/ 12 1014.7F
YORK RVR RNG VA  0900   75      80/ 11/ 13 1013.5R
YORKTOWN VA      0900   76 81   80/ 10/ 12 1013.6F
JAMESTOWN VA     0900   72      90/  4/  6   N/A
DOMINION TERM VA 0900   76      30/  1/  5 1013.8R
KIPTOPEKE VA     0900      82   80/  5/  8   N/A
CHES BAY BRIDGE  0900   76 79   60/ 11/ 12 1013.1S
CAPE HENRY VA    0900   75      60/ 11/ 12 1012.4S
CHESAPEAKE LGHT  0800   76      60/  9/  9 1014.5S
WILLOUBY STN VA  0900   76      50/  7/  8 1012.5S
S CRANEY ISL VA  0900           50/  6/  7 1013.3F
CAPE HENRY BUOY  0900      77                N/A     3/ 7
1ST LANDING BUOY 0900   76      60/ 12/ 14 1013.2F
CAPE CHARLES BUO 0900      78                N/A     3/ 7   2/ 7
OFFSHORE WE BUOY 0900      78                N/A     3/ 7   2/ 7
64NM E OF VA BCH 0900   77 78   50/  6/  8 1012.9F   2/ 8   2/ 8
DUCK PIER NC     0900   77 80   50/  9/ 11 1012.5F
44056 DUCK FRF   0900                        N/A     2/ 7
OREGON INLET NC  0900   76 82   30/  8/ 10 1012.8F
HATTERAS NC      0900   79 82   50/  3/  5 1013.3S
DIAMOND SHLS NC  0900   78     350/  8/ 12 1012.5F   2/ 6   2/ 6
CAPE LOOKOUT NC  0800   81      50/  7/  8 1012.9F
$$


USA.gov is the U.S. government's official web portal to all federal, state and local government web resources and services.